Weather History for KCGC - February, 2013

Change the Weather History Date:

Tuesday, February 5, 2013

  Actual Average (KGNV) Record (KGNV)
Temperature  
Mean Temperature 52 °F 56 °F  
Max Temperature 73 °F 68 °F 86 °F (1957)
Min Temperature 32 °F 44 °F 18 °F (1996)
Degree Days  
Heating Degree Days 12 10  
Month to date heating degree days 50  
Since 1 July heating degree days 852  
Cooling Degree Days 0 1  
Month to date cooling degree days 1  
Year to date cooling degree days 13  
Growing Degree Days 2 (Base 50)    
Moisture  
Dew Point 43 °F    
Average Humidity 70    
Maximum Humidity 100    
Minimum Humidity 37    
Precipitation  
Precipitation 0.00 in 0.10 in 2.10 in (1987)
Month to date precipitation 0.55  
Year to date precipitation 3.86  
Snow  
Snow 0.00 in 0.00 in 0.00 in ()
Month to date snowfall 0.0  
Since 1 July snowfall 0.0  
Snow Depth -    
Sea Level Pressure  
Sea Level Pressure 30.06 in    
Wind  
Wind Speed 1 mph (SW)    
Max Wind Speed 12 mph    
Max Gust Speed 16 mph    
Visibility 10 miles    
Events      
T = Trace of Precipitation, MM = Missing Value Source: NWS Daily Summary

Daily Weather History Graph

Daily Weather History Graph

Search for Another Location

Airport or City:

Trip Planner

Search our weather history database for the weather conditions in past years. The results will help you decide how hot, cold, wet, or windy it might be!

Date:

Astronomy

Feb. 05, 2013 Rise Set
Actual Time 7:16 AM EST 6:12 PM EST
Civil Twilight 6:51 AM EST 6:37 PM EST
Nautical Twilight 6:23 AM EST 7:05 PM EST
Astronomical Twilight 5:55 AM EST 7:33 PM EST
Moon 2:48 AM EST (2/5) 1:37 PM EST (2/5)
Length of Visible Light 11h 45m
Length of Day
10h 56m
Waning Crescent, 27% of the Moon is Illuminated
Feb 5
Waning Crescent
Feb 10
New
Feb 17
First Quarter
Feb 25
Full
Mar 4
Last Quarter

Hourly Weather History & Observations

Time (EST) Temp. Dew Point Humidity Pressure Visibility Wind Dir Wind Speed Gust Speed Precip Events Conditions
12:15 AM 35.6 °F 33.8 °F 93% 30.09 in 10.0 mi Calm Calm - N/A   Clear
12:35 AM 35.6 °F 32.0 °F 87% 30.07 in 10.0 mi Calm Calm - N/A   Clear
12:55 AM 35.6 °F 32.0 °F 87% 30.05 in 10.0 mi Calm Calm - N/A   Clear
1:15 AM 35.6 °F 32.0 °F 87% 30.05 in 10.0 mi Calm Calm - N/A   Clear
1:35 AM 35.6 °F 32.0 °F 87% 30.05 in 10.0 mi Calm Calm - N/A   Clear
1:55 AM 35.6 °F 33.8 °F 93% 30.04 in 10.0 mi Calm Calm - N/A   Clear
2:15 AM 33.8 °F 32.0 °F 93% 30.04 in 10.0 mi Calm Calm - N/A   Clear
2:35 AM 35.6 °F 33.8 °F 93% 30.04 in 10.0 mi Calm Calm - N/A   Clear
2:55 AM 35.6 °F 33.8 °F 93% 30.05 in 10.0 mi Calm Calm - N/A   Clear
3:15 AM 35.6 °F 33.8 °F 93% 30.05 in 10.0 mi Calm Calm - N/A   Clear
3:35 AM 33.8 °F 32.0 °F 93% 30.05 in 10.0 mi Calm Calm - N/A   Clear
3:55 AM 33.8 °F 32.0 °F 93% 30.05 in 10.0 mi Calm Calm - N/A   Clear
4:15 AM 33.8 °F 32.0 °F 93% 30.04 in 10.0 mi Calm Calm - N/A   Clear
4:35 AM 33.8 °F 32.0 °F 93% 30.05 in 10.0 mi Calm Calm - N/A   Clear
4:55 AM 33.8 °F 32.0 °F 93% 30.05 in 10.0 mi Calm Calm - N/A   Clear
5:15 AM 32.0 °F 32.0 °F 100% 30.05 in 10.0 mi Calm Calm - N/A   Clear
5:35 AM 32.0 °F 32.0 °F 100% 30.05 in 10.0 mi Calm Calm - N/A   Clear
5:55 AM 33.8 °F 32.0 °F 93% 30.06 in 10.0 mi Calm Calm - N/A   Clear
6:15 AM 32.0 °F 32.0 °F 100% 30.06 in 10.0 mi Calm Calm - N/A   Clear
6:35 AM 33.8 °F 32.0 °F 93% 30.07 in 10.0 mi Calm Calm - N/A   Clear
6:55 AM 33.8 °F 32.0 °F 93% 30.07 in 10.0 mi Calm Calm - N/A   Clear
7:15 AM 32.0 °F 32.0 °F 100% 30.08 in 10.0 mi Calm Calm - N/A   Clear
7:35 AM 33.8 °F 32.0 °F 93% 30.09 in 10.0 mi Calm Calm - N/A   Clear
7:55 AM 35.6 °F 33.8 °F 93% 30.09 in 10.0 mi Calm Calm - N/A   Scattered Clouds
8:15 AM 41.0 °F 37.4 °F 87% 30.10 in 10.0 mi Calm Calm - N/A   Mostly Cloudy
8:35 AM 42.8 °F 37.4 °F 81% 30.10 in 10.0 mi Calm Calm - N/A   Mostly Cloudy
8:55 AM 50.0 °F 41.0 °F 71% 30.11 in 10.0 mi East 3.5 mph - N/A   Scattered Clouds
9:15 AM 55.4 °F 39.2 °F 54% 30.11 in 10.0 mi East 3.5 mph - N/A   Clear
9:35 AM 59.0 °F 37.4 °F 45% 30.11 in 10.0 mi East 5.8 mph - N/A   Clear
9:55 AM 62.6 °F 37.4 °F 39% 30.11 in 10.0 mi ENE 4.6 mph - N/A   Clear
10:15 AM 64.4 °F 37.4 °F 37% 30.11 in 10.0 mi East 4.6 mph - N/A   Clear
10:35 AM 66.2 °F 39.2 °F 37% 30.11 in 10.0 mi NE 3.5 mph - N/A   Clear
10:55 AM 68.0 °F 42.8 °F 40% 30.11 in 10.0 mi East 3.5 mph - N/A   Clear
11:15 AM 68.0 °F 44.6 °F 43% 30.11 in 10.0 mi Calm Calm - N/A   Clear
11:35 AM 69.8 °F 46.4 °F 43% 30.10 in 10.0 mi North 3.5 mph - N/A   Clear
11:55 AM 69.8 °F 48.2 °F 46% 30.09 in 10.0 mi Calm Calm - N/A   Clear
12:15 PM 69.8 °F 50.0 °F 49% 30.09 in 10.0 mi WSW 5.8 mph - N/A   Clear
12:35 PM 71.6 °F 50.0 °F 46% 30.08 in 10.0 mi WSW 5.8 mph - N/A   Clear
12:55 PM 71.6 °F 50.0 °F 46% 30.07 in 10.0 mi SSW 5.8 mph - N/A   Scattered Clouds
1:15 PM 73.4 °F 50.0 °F 44% 30.06 in 10.0 mi WSW 11.5 mph 16.1 mph N/A   Scattered Clouds
1:35 PM 71.6 °F 50.0 °F 46% 30.05 in 10.0 mi SW 9.2 mph - N/A   Clear
1:55 PM 73.4 °F 50.0 °F 44% 30.04 in 10.0 mi SSW 6.9 mph - N/A   Clear
2:15 PM 73.4 °F 50.0 °F 44% 30.04 in 10.0 mi WSW 9.2 mph - N/A   Clear
2:35 PM 73.4 °F 50.0 °F 44% 30.04 in 10.0 mi WSW 10.4 mph - N/A   Clear
2:55 PM 71.6 °F 50.0 °F 46% 30.03 in 10.0 mi WSW 5.8 mph - N/A   Clear
3:15 PM 71.6 °F 50.0 °F 46% 30.03 in 10.0 mi WSW 8.1 mph - N/A   Clear
3:35 PM 71.6 °F 51.8 °F 50% 30.03 in 10.0 mi SW 6.9 mph - N/A   Clear
3:55 PM 69.8 °F 50.0 °F 49% 30.03 in 10.0 mi West 8.1 mph - N/A   Clear
4:15 PM 69.8 °F 50.0 °F 49% 30.03 in 10.0 mi WSW 6.9 mph - N/A   Clear
4:35 PM 68.0 °F 50.0 °F 52% 30.03 in 10.0 mi WSW 4.6 mph - N/A   Clear
4:55 PM 69.8 °F 50.0 °F 49% 30.03 in 10.0 mi West 5.8 mph - N/A   Clear
5:15 PM 69.8 °F 50.0 °F 49% 30.03 in 10.0 mi West 4.6 mph - N/A   Clear
5:35 PM 68.0 °F 50.0 °F 52% 30.03 in 10.0 mi West 4.6 mph - N/A   Scattered Clouds
5:55 PM 66.2 °F 50.0 °F 56% 30.03 in 10.0 mi Calm Calm - N/A   Mostly Cloudy
6:15 PM 64.4 °F 50.0 °F 59% 30.03 in 10.0 mi Calm Calm - N/A   Mostly Cloudy
6:35 PM 62.6 °F 50.0 °F 63% 30.03 in 10.0 mi Calm Calm - N/A   Scattered Clouds
6:55 PM 59.0 °F 50.0 °F 72% 30.03 in 10.0 mi Calm Calm - N/A   Clear
7:15 PM 59.0 °F 50.0 °F 72% 30.03 in 10.0 mi Calm Calm - N/A   Mostly Cloudy
7:35 PM 60.8 °F 50.0 °F 68% 30.04 in 10.0 mi Calm Calm - N/A   Overcast
7:55 PM 59.0 °F 50.0 °F 72% 30.04 in 10.0 mi Calm Calm - N/A   Overcast
8:15 PM 59.0 °F 50.0 °F 72% 30.04 in 10.0 mi Calm Calm - N/A   Overcast
8:35 PM 59.0 °F 50.0 °F 72% 30.04 in 10.0 mi Calm Calm - N/A   Overcast
8:55 PM 59.0 °F 50.0 °F 72% 30.05 in 10.0 mi Calm Calm - N/A   Overcast
9:15 PM 57.2 °F 51.8 °F 82% 30.05 in 10.0 mi Calm Calm - N/A   Overcast
9:35 PM 59.0 °F 50.0 °F 72% 30.05 in 10.0 mi Calm Calm - N/A   Overcast
9:55 PM 57.2 °F 50.0 °F 77% 30.06 in 10.0 mi Calm Calm - N/A   Overcast
10:15 PM 59.0 °F 51.8 °F 77% 30.06 in 10.0 mi Calm Calm - N/A   Overcast
10:35 PM 59.0 °F 51.8 °F 77% 30.07 in 10.0 mi Calm Calm - N/A   Mostly Cloudy
10:55 PM 59.0 °F 50.0 °F 72% 30.06 in 10.0 mi Calm Calm - N/A   Scattered Clouds
11:15 PM 57.2 °F 51.8 °F 82% 30.07 in 10.0 mi Calm Calm - N/A   Mostly Cloudy
11:35 PM 57.2 °F 51.8 °F 82% 30.06 in 10.0 mi Calm Calm - N/A   Overcast
11:55 PM 57.2 °F 50.0 °F 77% 30.06 in 10.0 mi Calm Calm - N/A   Overcast